| time (UTC) | temp F | wind direction | speed knots | gust knots | rain 1hr in | rain 24hr in | rain mn in | humidity % | barometer mb |
| 20260508052509 | 48 | 109 | 0.0 | 0.0 | 0.00 | 0.16 | 0.00 | 1 | 1013.3 |
| 20260508052005 | 48 | 109 | 0.0 | 0.0 | 0.00 | 0.16 | 0.00 | 1 | 1013.5 |
| 20260508051504 | 48 | 109 | 0.0 | 0.0 | 0.00 | 0.16 | 0.00 | 1 | 1013.5 |
| 20260508051002 | 48 | 109 | 0.0 | 0.0 | 0.00 | 0.16 | 0.00 | 1 | 1013.4 |
| 20260508050501 | 48 | 109 | 0.0 | 0.0 | 0.00 | 0.16 | 0.00 | 1 | 1013.4 |
| 20260508045559 | 48 | 109 | 0.0 | 0.0 | 0.00 | 0.16 | 0.00 | 1 | 1013.4 |
| 20260508045058 | 48 | 109 | 0.0 | 0.9 | 0.00 | 0.16 | 0.00 | 1 | 1013.3 |
| 20260508044601 | 48 | 109 | 0.0 | 0.9 | 0.00 | 0.16 | 0.00 | 1 | 1013.2 |
| 20260508044055 | 48 | 109 | 0.0 | 0.9 | 0.00 | 0.16 | 0.00 | 1 | 1013.1 |
| 20260508043553 | 48 | 99 | 0.0 | 0.9 | 0.00 | 0.16 | 0.00 | 1 | 1013.1 |
| 20260508043052 | 48 | 97 | 0.0 | 0.9 | 0.00 | 0.16 | 0.00 | 1 | 1013.1 |
| 20260508042551 | 49 | 87 | 0.0 | 0.9 | 0.00 | 0.16 | 0.00 | 1 | 1013.0 |
| 20260508042049 | 49 | 106 | 0.0 | 0.9 | 0.00 | 0.16 | 0.00 | 1 | 1013.1 |
| 20260508041548 | 49 | 101 | 0.0 | 0.9 | 0.00 | 0.16 | 0.00 | 1 | 1013.1 |
| 20260508041048 | 49 | 112 | 0.0 | 0.9 | 0.00 | 0.16 | 0.00 | 1 | 1013.1 |
| 20260508040544 | 49 | 115 | 0.0 | 0.9 | 0.00 | 0.16 | 0.00 | 1 | 1013.0 |
| 20260508040044 | 49 | 181 | 0.0 | 0.0 | 0.00 | 0.16 | 0.00 | 1 | 1012.9 |
| 20260508035542 | 49 | 181 | 0.0 | 0.0 | 0.00 | 0.16 | 0.16 | 1 | 1012.9 |
| 20260508035041 | 49 | 181 | 0.0 | 0.0 | 0.00 | 0.16 | 0.16 | 1 | 1012.8 |
| 20260508034540 | 49 | 181 | 0.0 | 0.0 | 0.00 | 0.16 | 0.16 | 1 | 1012.9 |
| 20260508034037 | 49 | 181 | 0.0 | 0.0 | 0.00 | 0.16 | 0.16 | 1 | 1012.9 |
| 20260508033536 | 49 | 181 | 0.0 | 0.0 | 0.00 | 0.16 | 0.16 | 1 | 1012.8 |
| 20260508033045 | 49 | 181 | 0.0 | 0.0 | 0.00 | 0.16 | 0.16 | 1 | 1012.7 |
| 20260508032533 | 49 | 181 | 0.0 | 0.0 | 0.00 | 0.16 | 0.16 | 1 | 1012.9 |
| 20260508032031 | 49 | 181 | 0.0 | 0.0 | 0.00 | 0.16 | 0.16 | 1 | 1012.9 |
| 20260508031530 | 49 | 181 | 0.0 | 0.0 | 0.00 | 0.16 | 0.16 | 1 | 1012.9 |
| 20260508031029 | 49 | 181 | 0.0 | 0.0 | 0.00 | 0.16 | 0.16 | 1 | 1012.8 |
| 20260508030528 | 49 | 181 | 0.0 | 0.0 | 0.00 | 0.16 | 0.16 | 1 | 1012.8 |
| 20260508030028 | 49 | 181 | 0.0 | 0.0 | 0.00 | 0.16 | 0.16 | 1 | 1012.6 |
| 20260508025528 | 49 | 181 | 0.0 | 0.0 | 0.00 | 0.16 | 0.16 | 1 | 1012.6 |
| 20260508025023 | 49 | 181 | 0.0 | 0.0 | 0.00 | 0.16 | 0.16 | 1 | 1012.6 |
| 20260508024527 | 49 | 181 | 0.0 | 0.0 | 0.00 | 0.16 | 0.16 | 1 | 1012.6 |
| 20260508024021 | 49 | 181 | 0.0 | 0.0 | 0.00 | 0.16 | 0.16 | 1 | 1012.4 |
| 20260508023519 | 49 | 181 | 0.0 | 0.0 | 0.00 | 0.16 | 0.16 | 1 | 1012.4 |
| 20260508023020 | 49 | 181 | 0.0 | 0.0 | 0.00 | 0.16 | 0.16 | 1 | 1012.5 |
| 20260508022516 | 50 | 181 | 0.0 | 0.0 | 0.00 | 0.16 | 0.16 | 1 | 1012.4 |
| 20260508022015 | 50 | 181 | 0.0 | 0.0 | 0.00 | 0.16 | 0.16 | 1 | 1012.5 |
| 20260508021519 | 50 | 181 | 0.0 | 0.0 | 0.00 | 0.16 | 0.16 | 1 | 1012.5 |
| 20260508021011 | 50 | 181 | 0.0 | 0.0 | 0.00 | 0.16 | 0.16 | 1 | 1012.4 |
| 20260508020510 | 50 | 181 | 0.0 | 0.0 | 0.00 | 0.16 | 0.16 | 1 | 1012.4 |
| 20260508020011 | 50 | 181 | 0.0 | 0.0 | 0.00 | 0.16 | 0.16 | 1 | 1012.4 |
| 20260508015507 | 50 | 181 | 0.0 | 0.0 | 0.00 | 0.16 | 0.16 | 1 | 1012.2 |
| 20260508015006 | 51 | 181 | 0.0 | 0.0 | 0.00 | 0.16 | 0.16 | 1 | 1012.2 |
| 20260508014505 | 51 | 181 | 0.0 | 0.0 | 0.00 | 0.16 | 0.16 | 1 | 1012.1 |
| 20260508014004 | 51 | 181 | 0.0 | 0.0 | 0.00 | 0.16 | 0.16 | 1 | 1012.1 |
| 20260508013501 | 51 | 181 | 0.0 | 0.0 | 0.00 | 0.16 | 0.16 | 1 | 1012.4 |
| 20260508013108 | 51 | 181 | 0.0 | 0.0 | 0.00 | 0.16 | 0.16 | 1 | 1012.2 |
| 20260508012558 | 51 | 181 | 0.0 | 0.0 | 0.00 | 0.16 | 0.16 | 1 | 1012.0 |
| 20260508012057 | 51 | 181 | 0.0 | 0.0 | 0.00 | 0.16 | 0.16 | 1 | 1012.2 |
| 20260508011600 | 51 | 181 | 0.0 | 0.0 | 0.00 | 0.16 | 0.16 | 1 | 1012.2 |
| 20260508011057 | 52 | 181 | 0.0 | 0.0 | 0.00 | 0.16 | 0.16 | 1 | 1012.0 |
| 20260508010553 | 52 | 181 | 0.0 | 0.0 | 0.00 | 0.16 | 0.16 | 1 | 1012.1 |
| 20260508010059 | 52 | 181 | 0.0 | 0.0 | 0.00 | 0.16 | 0.16 | 1 | 1011.9 |
| 20260508005550 | 52 | 181 | 0.0 | 0.0 | 0.00 | 0.16 | 0.16 | 1 | 1012.0 |
| 20260508005049 | 52 | 181 | 0.0 | 0.0 | 0.00 | 0.16 | 0.16 | 1 | 1012.0 |
| 20260508004547 | 52 | 181 | 0.0 | 0.0 | 0.00 | 0.16 | 0.16 | 1 | 1011.9 |
| 20260508004045 | 52 | 181 | 0.0 | 0.0 | 0.00 | 0.16 | 0.16 | 1 | 1011.8 |
| 20260508003543 | 52 | 181 | 0.0 | 0.0 | 0.00 | 0.16 | 0.16 | 1 | 1011.7 |
| 20260508003044 | 52 | 181 | 0.0 | 0.0 | 0.00 | 0.16 | 0.16 | 1 | 1011.5 |
| 20260508002541 | 52 | 181 | 0.0 | 0.0 | 0.00 | 0.16 | 0.16 | 1 | 1011.5 |
| 20260508002039 | 52 | 181 | 0.0 | 0.0 | 0.00 | 0.16 | 0.16 | 1 | 1011.7 |
| 20260508001548 | 53 | 181 | 0.0 | 0.0 | 0.00 | 0.16 | 0.16 | 1 | 1011.5 |
| 20260508001036 | 53 | 181 | 0.0 | 0.0 | 0.00 | 0.16 | 0.16 | 1 | 1011.3 |
| 20260508000535 | 53 | 181 | 0.0 | 0.0 | 0.00 | 0.16 | 0.16 | 1 | 1011.2 |
| 20260508000034 | 53 | 181 | 0.0 | 0.0 | 0.00 | 0.16 | 0.16 | 1 | 1011.0 |
| 20260507235533 | 53 | 181 | 0.0 | 0.0 | 0.00 | 0.16 | 0.16 | 1 | 1011.2 |
| 20260507235032 | 53 | 181 | 0.0 | 0.0 | 0.00 | 0.16 | 0.16 | 1 | 1011.0 |
| 20260507234530 | 53 | 181 | 0.0 | 0.0 | 0.00 | 0.16 | 0.16 | 1 | 1010.9 |
| 20260507234028 | 53 | 181 | 0.0 | 0.0 | 0.00 | 0.16 | 0.16 | 1 | 1010.9 |
| 20260507233526 | 53 | 181 | 0.0 | 0.0 | 0.00 | 0.16 | 0.16 | 1 | 1010.8 |
| 20260507233026 | 53 | 181 | 0.0 | 0.0 | 0.00 | 0.16 | 0.16 | 1 | 1010.8 |
| 20260507232524 | 53 | 181 | 0.0 | 0.0 | 0.00 | 0.16 | 0.16 | 1 | 1010.8 |
| 20260507232024 | 53 | 181 | 0.0 | 0.0 | 0.00 | 0.16 | 0.16 | 1 | 1010.8 |
| 20260507231523 | 53 | 181 | 0.0 | 0.0 | 0.00 | 0.16 | 0.16 | 1 | 1010.8 |
| 20260507231019 | 53 | 181 | 0.0 | 0.0 | 0.00 | 0.16 | 0.16 | 1 | 1010.8 |
| 20260507230518 | 53 | 181 | 0.0 | 0.0 | 0.00 | 0.16 | 0.16 | 1 | 1010.7 |
| 20260507230025 | 53 | 181 | 0.0 | 0.0 | 0.00 | 0.16 | 0.16 | 1 | 1010.6 |
| 20260507225515 | 53 | 181 | 0.0 | 0.0 | 0.00 | 0.16 | 0.16 | 1 | 1010.6 |
| 20260507225017 | 53 | 181 | 0.0 | 0.0 | 0.00 | 0.16 | 0.16 | 1 | 1010.6 |
| 20260507224521 | 53 | 181 | 0.0 | 0.9 | 0.00 | 0.16 | 0.16 | 1 | 1010.6 |
| 20260507224010 | 53 | 181 | 0.0 | 1.7 | 0.00 | 0.16 | 0.16 | 1 | 1010.6 |
| 20260507223508 | 54 | 180 | 0.0 | 1.7 | 0.00 | 0.16 | 0.16 | 1 | 1010.7 |
| 20260507223007 | 54 | 185 | 0.0 | 0.0 | 0.00 | 0.16 | 0.16 | 1 | 1010.7 |
| 20260507222505 | 54 | 185 | 0.0 | 0.0 | 0.00 | 0.16 | 0.16 | 1 | 1010.7 |
| 20260507222005 | 54 | 179 | 0.0 | 0.0 | 0.00 | 0.16 | 0.16 | 1 | 1010.6 |
| 20260507221504 | 54 | 179 | 0.0 | 0.0 | 0.00 | 0.16 | 0.16 | 1 | 1010.7 |
| 20260507221002 | 54 | 179 | 0.0 | 0.0 | 0.00 | 0.16 | 0.16 | 1 | 1010.7 |
| 20260507220600 | 54 | 179 | 0.0 | 0.0 | 0.00 | 0.16 | 0.16 | 1 | 1010.5 |
| 20260507220059 | 54 | 179 | 0.0 | 0.0 | 0.00 | 0.16 | 0.16 | 1 | 1010.3 |
| 20260507215558 | 54 | 179 | 0.0 | 0.0 | 0.01 | 0.16 | 0.16 | 1 | 1010.4 |
| 20260507215056 | 54 | 179 | 0.0 | 0.0 | 0.02 | 0.16 | 0.16 | 1 | 1010.5 |
| 20260507214556 | 54 | 179 | 0.0 | 0.0 | 0.05 | 0.16 | 0.16 | 1 | 1010.6 |
| 20260507214053 | 54 | 179 | 0.0 | 0.0 | 0.06 | 0.16 | 0.16 | 1 | 1010.5 |
| 20260507213551 | 54 | 179 | 0.0 | 0.0 | 0.06 | 0.16 | 0.16 | 1 | 1010.4 |
| 20260507213055 | 54 | 179 | 0.0 | 0.0 | 0.07 | 0.16 | 0.16 | 1 | 1010.4 |
| 20260507212548 | 54 | 179 | 0.0 | 0.0 | 0.07 | 0.16 | 0.16 | 1 | 1010.5 |
| 20260507212047 | 54 | 161 | 0.0 | 0.0 | 0.07 | 0.16 | 0.16 | 1 | 1010.4 |
| 20260507211551 | 54 | 161 | 0.0 | 0.0 | 0.07 | 0.16 | 0.16 | 1 | 1010.2 |
| 20260507211044 | 55 | 161 | 0.0 | 0.0 | 0.07 | 0.16 | 0.16 | 1 | 1010.3 |
| 20260507210543 | 55 | 161 | 0.0 | 0.0 | 0.07 | 0.16 | 0.16 | 1 | 1010.5 |
| 20260507210042 | 55 | 158 | 0.0 | 0.0 | 0.07 | 0.16 | 0.16 | 1 | 1010.6 |
| 20260507205540 | 55 | 158 | 0.0 | 0.0 | 0.06 | 0.15 | 0.15 | 1 | 1010.5 |
| 20260507205039 | 55 | 158 | 0.0 | 0.0 | 0.05 | 0.14 | 0.14 | 1 | 1010.7 |
| 20260507204537 | 55 | 158 | 0.0 | 0.0 | 0.03 | 0.11 | 0.11 | 1 | 1010.8 |
| 20260507204036 | 55 | 158 | 0.0 | 0.0 | 0.03 | 0.10 | 0.10 | 1 | 1010.6 |
| 20260507203534 | 55 | 158 | 0.0 | 0.0 | 0.05 | 0.10 | 0.10 | 1 | 1010.9 |
| 20260507203032 | 55 | 158 | 0.0 | 0.0 | 0.04 | 0.09 | 0.09 | 1 | 1010.8 |
| 20260507202530 | 55 | 158 | 0.0 | 0.0 | 0.04 | 0.09 | 0.09 | 1 | 1010.6 |
| 20260507202029 | 56 | 158 | 0.0 | 0.0 | 0.04 | 0.09 | 0.09 | 1 | 1010.9 |
| 20260507201536 | 56 | 158 | 0.0 | 0.0 | 0.04 | 0.09 | 0.09 | 1 | 1010.9 |
| 20260507201027 | 56 | 158 | 0.0 | 0.0 | 0.04 | 0.09 | 0.09 | 1 | 1010.7 |
| 20260507200525 | 56 | 158 | 0.0 | 0.0 | 0.04 | 0.09 | 0.09 | 1 | 1010.8 |
| 20260507200032 | 56 | 158 | 0.0 | 0.0 | 0.04 | 0.09 | 0.09 | 1 | 1010.9 |
| 20260507195525 | 56 | 158 | 0.0 | 0.0 | 0.04 | 0.09 | 0.09 | 1 | 1010.9 |
| 20260507195023 | 56 | 158 | 0.0 | 0.0 | 0.04 | 0.09 | 0.09 | 1 | 1011.0 |
| 20260507194519 | 56 | 158 | 0.0 | 0.0 | 0.03 | 0.08 | 0.08 | 1 | 1010.8 |
| 20260507194017 | 56 | 158 | 0.0 | 0.0 | 0.02 | 0.07 | 0.07 | 1 | 1010.8 |
| 20260507193516 | 56 | 158 | 0.0 | 0.0 | 0.00 | 0.05 | 0.05 | 2 | 1010.9 |
| 20260507193020 | 56 | 158 | 0.0 | 0.0 | 0.00 | 0.05 | 0.05 | 6 | 1011.0 |
| 20260507192514 | 57 | 158 | 0.0 | 0.0 | 0.00 | 0.05 | 0.05 | 9 | 1011.1 |
| 20260507192011 | 56 | 158 | 0.0 | 0.0 | 0.00 | 0.05 | 0.05 | 15 | 1011.0 |
| 20260507191516 | 56 | 158 | 0.0 | 0.0 | 0.00 | 0.05 | 0.05 | 17 | 1011.0 |
| 20260507191009 | 56 | 158 | 0.0 | 0.0 | 0.00 | 0.05 | 0.05 | 21 | 1011.2 |
| 20260507190508 | 56 | 158 | 0.0 | 0.0 | 0.00 | 0.05 | 0.05 | 25 | 1011.0 |
| 20260507190006 | 56 | 158 | 0.0 | 0.0 | 0.00 | 0.05 | 0.05 | 25 | 1011.2 |
| 20260507185504 | 56 | 158 | 0.0 | 0.9 | 0.00 | 0.06 | 0.05 | 25 | 1011.2 |
| 20260507185003 | 56 | 158 | 0.0 | 2.6 | 0.00 | 0.06 | 0.05 | 26 | 1011.0 |
| 20260507184602 | 56 | 158 | 0.0 | 2.6 | 0.00 | 0.06 | 0.05 | 26 | 1011.1 |
| 20260507184101 | 56 | 305 | 0.0 | 2.6 | 0.00 | 0.06 | 0.05 | 25 | 1011.0 |
| 20260507183602 | 56 | 302 | 0.9 | 2.6 | 0.00 | 0.06 | 0.05 | 24 | 1011.0 |
| 20260507183105 | 56 | 326 | 0.0 | 0.0 | 0.00 | 0.06 | 0.05 | 25 | 1010.9 |
| 20260507182556 | 56 | 325 | 0.0 | 1.7 | 0.00 | 0.06 | 0.05 | 27 | 1011.1 |
| 20260507182055 | 56 | 325 | 0.0 | 3.5 | 0.00 | 0.06 | 0.05 | 29 | 1011.3 |
| 20260507181554 | 56 | 325 | 0.0 | 3.5 | 0.00 | 0.06 | 0.05 | 29 | 1011.2 |
| 20260507181051 | 56 | 265 | 0.0 | 3.5 | 0.00 | 0.06 | 0.05 | 28 | 1011.1 |
| 20260507180550 | 56 | 265 | 0.9 | 3.5 | 0.00 | 0.06 | 0.05 | 29 | 1011.2 |
| 20260507180054 | 56 | 253 | 0.9 | 4.3 | 0.00 | 0.06 | 0.05 | 26 | 1011.1 |
| 20260507175547 | 56 | 286 | 0.9 | 6.1 | 0.00 | 0.06 | 0.05 | 21 | 1011.2 |
| 20260507175046 | 55 | 246 | 0.9 | 6.1 | 0.00 | 0.06 | 0.05 | 22 | 1011.1 |
| 20260507174545 | 55 | 311 | 0.0 | 2.6 | 0.00 | 0.06 | 0.05 | 20 | 1011.4 |
| 20260507174043 | 55 | 311 | 0.0 | 2.6 | 0.00 | 0.06 | 0.05 | 19 | 1011.3 |
| 20260507173543 | 55 | 100 | 0.0 | 2.6 | 0.00 | 0.06 | 0.05 | 18 | 1011.5 |
| 20260507173055 | 55 | 281 | 0.0 | 2.6 | 0.00 | 0.06 | 0.05 | 14 | 1011.8 |
| 20260507172539 | 55 | 355 | 0.9 | 3.5 | 0.00 | 0.06 | 0.05 | 8 | 1011.6 |
| 20260507172040 | 55 | 322 | 0.9 | 5.2 | 0.00 | 0.06 | 0.05 | 2 | 1011.5 |
| 20260507171537 | 55 | 141 | 0.9 | 5.2 | 0.00 | 0.06 | 0.05 | 1 | 1011.5 |
| 20260507171034 | 55 | 286 | 0.0 | 3.5 | 0.00 | 0.06 | 0.05 | 1 | 1011.7 |
| 20260507170536 | 55 | 304 | 0.0 | 3.5 | 0.00 | 0.06 | 0.05 | 1 | 1011.6 |
| 20260507170045 | 55 | 196 | 0.0 | 3.5 | 0.00 | 0.06 | 0.05 | 1 | 1011.9 |
| 20260507165530 | 55 | 281 | 0.0 | 2.6 | 0.00 | 0.06 | 0.05 | 1 | 1012.1 |
| 20260507165028 | 55 | 280 | 0.0 | 5.2 | 0.00 | 0.06 | 0.05 | 1 | 1012.1 |
| 20260507164527 | 56 | 315 | 0.0 | 5.2 | 0.00 | 0.06 | 0.05 | 1 | 1012.2 |
| 20260507164027 | 56 | 248 | 0.0 | 4.3 | 0.00 | 0.06 | 0.05 | 1 | 1012.1 |
| 20260507163525 | 55 | 261 | 0.0 | 7.0 | 0.00 | 0.06 | 0.05 | 1 | 1012.3 |
| 20260507163024 | 55 | 246 | 0.0 | 1.7 | 0.00 | 0.06 | 0.05 | 1 | 1012.1 |
| 20260507162521 | 55 | 246 | 0.0 | 1.7 | 0.00 | 0.06 | 0.05 | 1 | 1012.3 |
| 20260507162020 | 55 | 246 | 0.0 | 2.6 | 0.00 | 0.06 | 0.05 | 1 | 1012.0 |
| 20260507161518 | 55 | 140 | 0.0 | 1.7 | 0.00 | 0.06 | 0.05 | 1 | 1012.1 |
| 20260507161016 | 55 | 148 | 0.0 | 2.6 | 0.00 | 0.06 | 0.05 | 1 | 1012.2 |
| 20260507160516 | 55 | 151 | 0.0 | 2.6 | 0.00 | 0.06 | 0.05 | 1 | 1012.2 |
| 20260507160014 | 55 | 325 | 0.0 | 4.3 | 0.00 | 0.06 | 0.05 | 1 | 1012.2 |
| 20260507155513 | 55 | 326 | 0.0 | 4.3 | 0.00 | 0.06 | 0.05 | 1 | 1012.2 |
| 20260507155010 | 55 | 200 | 0.0 | 3.5 | 0.00 | 0.06 | 0.05 | 1 | 1012.2 |
| 20260507154510 | 56 | 332 | 0.0 | 2.6 | 0.00 | 0.06 | 0.05 | 1 | 1012.2 |
| 20260507154009 | 56 | 60 | 0.0 | 0.0 | 0.00 | 0.06 | 0.05 | 1 | 1012.2 |
| 20260507153506 | 56 | 60 | 0.0 | 0.0 | 0.00 | 0.06 | 0.05 | 1 | 1012.4 |
| 20260507153004 | 56 | 60 | 0.0 | 3.5 | 0.00 | 0.06 | 0.05 | 1 | 1012.3 |
| 20260507152504 | 56 | 61 | 0.9 | 3.5 | 0.00 | 0.06 | 0.05 | 1 | 1012.2 |
| 20260507152103 | 56 | 258 | 0.0 | 3.5 | 0.00 | 0.06 | 0.05 | 1 | 1012.2 |
| 20260507151601 | 56 | 280 | 0.9 | 2.6 | 0.00 | 0.06 | 0.05 | 1 | 1012.1 |
| 20260507151059 | 56 | 298 | 0.0 | 0.0 | 0.00 | 0.06 | 0.05 | 1 | 1012.2 |
| 20260507150557 | 56 | 298 | 0.0 | 0.0 | 0.00 | 0.06 | 0.05 | 1 | 1012.2 |
| 20260507150108 | 56 | 299 | 0.0 | 0.0 | 0.00 | 0.06 | 0.05 | 1 | 1012.3 |
| 20260507145556 | 56 | 299 | 0.0 | 0.0 | 0.00 | 0.12 | 0.05 | 1 | 1012.5 |
| 20260507145052 | 57 | 300 | 0.0 | 0.0 | 0.00 | 0.12 | 0.05 | 1 | 1012.3 |
| 20260507144551 | 57 | 300 | 0.0 | 0.0 | 0.00 | 0.12 | 0.05 | 1 | 1012.1 |
| 20260507144050 | 57 | 304 | 0.0 | 2.6 | 0.00 | 0.12 | 0.05 | 1 | 1011.8 |
| 20260507143548 | 57 | 304 | 0.0 | 2.6 | 0.00 | 0.12 | 0.05 | 1 | 1011.8 |
| 20260507143059 | 57 | 286 | 0.0 | 1.7 | 0.00 | 0.12 | 0.05 | 1 | 1012.1 |
| 20260507142545 | 57 | 286 | 0.0 | 1.7 | 0.00 | 0.12 | 0.05 | 1 | 1012.1 |
| 20260507142043 | 57 | 283 | 0.0 | 1.7 | 0.00 | 0.12 | 0.05 | 1 | 1012.1 |
| 20260507141542 | 57 | 282 | 0.0 | 3.5 | 0.00 | 0.12 | 0.05 | 1 | 1012.2 |
| 20260507141042 | 57 | 281 | 0.0 | 3.5 | 0.00 | 0.12 | 0.05 | 1 | 1012.3 |
| 20260507140540 | 57 | 270 | 0.0 | 4.3 | 0.00 | 0.12 | 0.05 | 1 | 1012.3 |
| 20260507140039 | 57 | 208 | 0.0 | 1.7 | 0.00 | 0.12 | 0.05 | 1 | 1012.4 |
| 20260507135539 | 57 | 208 | 0.0 | 1.7 | 0.00 | 0.12 | 0.05 | 1 | 1012.4 |
| 20260507135035 | 57 | 206 | 0.0 | 0.0 | 0.00 | 0.12 | 0.05 | 1 | 1012.3 |
| 20260507134534 | 57 | 206 | 0.0 | 1.7 | 0.00 | 0.12 | 0.05 | 1 | 1012.4 |
| 20260507134032 | 57 | 206 | 0.0 | 1.7 | 0.00 | 0.12 | 0.05 | 1 | 1012.4 |
| 20260507133533 | 57 | 206 | 0.0 | 2.6 | 0.00 | 0.12 | 0.05 | 1 | 1012.2 |
| 20260507133029 | 57 | 206 | 0.0 | 2.6 | 0.00 | 0.12 | 0.05 | 1 | 1012.2 |
| 20260507132527 | 57 | 296 | 0.0 | 1.7 | 0.00 | 0.12 | 0.05 | 1 | 1012.0 |
| 20260507132027 | 57 | 292 | 0.0 | 1.7 | 0.00 | 0.12 | 0.05 | 1 | 1012.1 |
| 20260507131528 | 57 | 331 | 0.0 | 3.5 | 0.00 | 0.12 | 0.05 | 1 | 1011.9 |
| 20260507131027 | 57 | 312 | 0.0 | 5.2 | 0.00 | 0.12 | 0.05 | 1 | 1012.1 |
| 20260507130522 | 57 | 328 | 0.0 | 5.2 | 0.00 | 0.12 | 0.05 | 1 | 1012.1 |
| 20260507130020 | 57 | 315 | 0.9 | 4.3 | 0.00 | 0.12 | 0.05 | 1 | 1011.7 |
| 20260507125520 | 57 | 296 | 0.0 | 2.6 | 0.00 | 0.12 | 0.05 | 1 | 1011.7 |
| 20260507125017 | 57 | 333 | 0.0 | 2.6 | 0.00 | 0.12 | 0.05 | 1 | 1012.1 |
| 20260507124516 | 57 | 132 | 0.0 | 2.6 | 0.00 | 0.12 | 0.05 | 1 | 1012.1 |
| 20260507124015 | 57 | 299 | 0.0 | 2.6 | 0.00 | 0.12 | 0.05 | 1 | 1011.9 |
| 20260507123514 | 56 | 300 | 0.0 | 2.6 | 0.00 | 0.12 | 0.05 | 1 | 1011.9 |
| 20260507123017 | 56 | 262 | 0.0 | 0.0 | 0.00 | 0.12 | 0.05 | 1 | 1012.1 |
| 20260507122510 | 56 | 259 | 0.0 | 1.7 | 0.00 | 0.12 | 0.05 | 1 | 1011.9 |
| 20260507122011 | 56 | 259 | 0.0 | 1.7 | 0.00 | 0.12 | 0.05 | 1 | 1011.7 |
| 20260507121507 | 56 | 223 | 0.0 | 1.7 | 0.00 | 0.12 | 0.05 | 1 | 1011.6 |
| 20260507121006 | 56 | 223 | 0.0 | 2.6 | 0.00 | 0.12 | 0.05 | 1 | 1011.8 |
| 20260507120504 | 56 | 223 | 0.0 | 2.6 | 0.00 | 0.12 | 0.05 | 1 | 1011.7 |
| 20260507120003 | 56 | 223 | 0.0 | 0.0 | 0.00 | 0.12 | 0.05 | 1 | 1011.8 |
| 20260507115503 | 56 | 223 | 0.0 | 0.0 | 0.00 | 0.12 | 0.05 | 1 | 1011.8 |
| 20260507115100 | 56 | 223 | 0.0 | 0.0 | 0.00 | 0.12 | 0.05 | 1 | 1011.9 |
| 20260507114601 | 56 | 223 | 0.0 | 2.6 | 0.00 | 0.12 | 0.05 | 1 | 1012.1 |
| 20260507114057 | 56 | 223 | 0.0 | 2.6 | 0.00 | 0.12 | 0.05 | 1 | 1012.1 |
| 20260507113556 | 56 | 322 | 0.0 | 0.9 | 0.00 | 0.12 | 0.05 | 1 | 1012.0 |
| 20260507113054 | 57 | 322 | 0.0 | 0.9 | 0.00 | 0.12 | 0.05 | 1 | 1011.8 |
| 20260507112554 | 57 | 325 | 0.0 | 0.0 | 0.00 | 0.12 | 0.05 | 1 | 1011.7 |
| 20260507112054 | 57 | 325 | 0.0 | 0.0 | 0.00 | 0.12 | 0.05 | 1 | 1011.7 |
| 20260507111550 | 57 | 325 | 0.0 | 0.0 | 0.00 | 0.12 | 0.05 | 1 | 1011.3 |
| 20260507111047 | 57 | 325 | 0.0 | 0.0 | 0.00 | 0.12 | 0.05 | 1 | 1011.3 |
| 20260507110546 | 57 | 325 | 0.0 | 0.0 | 0.00 | 0.12 | 0.05 | 1 | 1011.7 |
| 20260507110056 | 57 | 325 | 0.0 | 0.0 | 0.00 | 0.12 | 0.05 | 1 | 1011.7 |
| 20260507105544 | 57 | 325 | 0.0 | 0.0 | 0.01 | 0.12 | 0.05 | 1 | 1011.5 |
| 20260507105042 | 57 | 325 | 0.0 | 0.0 | 0.01 | 0.12 | 0.05 | 1 | 1011.4 |
| 20260507104548 | 57 | 325 | 0.0 | 0.0 | 0.01 | 0.12 | 0.05 | 1 | 1011.4 |
| 20260507104039 | 57 | 325 | 0.0 | 0.0 | 0.02 | 0.12 | 0.05 | 1 | 1011.2 |
| 20260507103541 | 57 | 325 | 0.0 | 1.7 | 0.02 | 0.12 | 0.05 | 1 | 1011.2 |
| 20260507103055 | 57 | 321 | 0.0 | 0.0 | 0.02 | 0.12 | 0.05 | 1 | 1011.1 |
| 20260507102534 | 57 | 321 | 0.0 | 0.0 | 0.02 | 0.12 | 0.05 | 1 | 1010.9 |
| 20260507102033 | 58 | 321 | 0.0 | 0.0 | 0.02 | 0.12 | 0.05 | 1 | 1010.8 |
| 20260507101535 | 58 | 339 | 0.0 | 0.0 | 0.02 | 0.12 | 0.05 | 1 | 1010.9 |
| 20260507101032 | 58 | 339 | 0.0 | 0.0 | 0.02 | 0.12 | 0.05 | 1 | 1010.9 |
| 20260507100529 | 58 | 344 | 0.0 | 0.0 | 0.02 | 0.12 | 0.05 | 1 | 1011.0 |
| 20260507100029 | 58 | 344 | 0.0 | 0.0 | 0.03 | 0.12 | 0.05 | 1 | 1011.2 |
| 20260507095526 | 58 | 344 | 0.0 | 1.7 | 0.02 | 0.11 | 0.04 | 1 | 1011.2 |
| 20260507095025 | 59 | 344 | 0.0 | 3.5 | 0.03 | 0.11 | 0.04 | 1 | 1011.2 |
| 20260507094523 | 59 | 355 | 0.9 | 3.5 | 0.03 | 0.11 | 0.04 | 1 | 1010.9 |
| 20260507094021 | 59 | 327 | 0.0 | 2.6 | 0.03 | 0.10 | 0.03 | 1 | 1010.8 |
| 20260507093523 | 59 | 327 | 0.0 | 3.5 | 0.03 | 0.10 | 0.03 | 1 | 1011.1 |
| 20260507093018 | 59 | 327 | 0.0 | 1.7 | 0.03 | 0.10 | 0.03 | 1 | 1011.2 |
| 20260507092517 | 60 | 327 | 0.9 | 1.7 | 0.03 | 0.10 | 0.03 | 1 | 1011.0 |
| 20260507092016 | 60 | 327 | 0.0 | 5.2 | 0.03 | 0.10 | 0.03 | 1 | 1011.1 |
| 20260507091514 | 60 | 327 | 0.0 | 5.2 | 0.03 | 0.10 | 0.03 | 1 | 1011.0 |
| 20260507091012 | 61 | 141 | 0.0 | 3.5 | 0.03 | 0.10 | 0.03 | 1 | 1010.9 |
| 20260507090510 | 61 | 289 | 0.0 | 2.6 | 0.03 | 0.10 | 0.03 | 1 | 1010.8 |
| 20260507090011 | 62 | 328 | 0.0 | 4.3 | 0.02 | 0.09 | 0.02 | 1 | 1010.8 |
| 20260507085508 | 62 | 322 | 0.0 | 7.0 | 0.02 | 0.09 | 0.02 | 1 | 1010.8 |
| 20260507085010 | 63 | 328 | 0.9 | 7.0 | 0.01 | 0.08 | 0.01 | 1 | 1010.7 |
| 20260507084519 | 64 | 274 | 0.9 | 4.3 | 0.00 | 0.07 | 0.00 | 1 | 1010.8 |
| 20260507084004 | 65 | 191 | 0.9 | 4.3 | 0.00 | 0.07 | 0.00 | 1 | 1010.5 |
| 20260507083502 | 66 | 334 | 0.9 | 5.2 | 0.00 | 0.07 | 0.00 | 1 | 1010.4 |
| 20260507082601 | 67 | 319 | 0.0 | 2.6 | 0.00 | 0.07 | 0.00 | 1 | 1009.9 |
| 20260507082101 | 68 | 210 | 0.0 | 0.0 | 0.00 | 0.07 | 0.00 | 1 | 1010.0 |
| 20260507081559 | 68 | 210 | 0.0 | 0.0 | 0.00 | 0.07 | 0.00 | 1 | 1010.1 |
| 20260507081055 | 68 | 210 | 0.0 | 0.0 | 0.00 | 0.07 | 0.00 | 1 | 1010.1 |
| 20260507080553 | 68 | 210 | 0.0 | 0.0 | 0.00 | 0.07 | 0.00 | 1 | 1010.1 |
| 20260507080055 | 68 | 210 | 0.0 | 0.0 | 0.00 | 0.07 | 0.00 | 1 | 1010.0 |
| 20260507075554 | 68 | 210 | 0.0 | 0.0 | 0.00 | 0.07 | 0.00 | 1 | 1009.9 |
| 20260507075051 | 68 | 210 | 0.0 | 0.0 | 0.00 | 0.07 | 0.00 | 1 | 1009.5 |
| 20260507074552 | 68 | 210 | 0.0 | 0.0 | 0.00 | 0.07 | 0.00 | 1 | 1009.2 |
| 20260507074047 | 68 | 210 | 0.0 | 0.0 | 0.00 | 0.07 | 0.00 | 1 | 1009.4 |
| 20260507073546 | 69 | 210 | 0.0 | 0.0 | 0.00 | 0.07 | 0.00 | 1 | 1009.5 |
| 20260507073045 | 69 | 210 | 0.0 | 0.0 | 0.00 | 0.07 | 0.00 | 1 | 1009.6 |
| 20260507072543 | 69 | 210 | 0.0 | 0.0 | 0.00 | 0.07 | 0.00 | 1 | 1009.4 |
| 20260507072041 | 69 | 210 | 0.0 | 0.0 | 0.00 | 0.07 | 0.00 | 1 | 1009.6 |
| 20260507071541 | 69 | 210 | 0.0 | 2.6 | 0.00 | 0.07 | 0.00 | 1 | 1009.3 |
| 20260507071038 | 69 | 210 | 0.9 | 2.6 | 0.00 | 0.07 | 0.00 | 1 | 1009.8 |
| 20260507070537 | 69 | 210 | 0.0 | 2.6 | 0.00 | 0.07 | 0.00 | 1 | 1009.7 |
| 20260507070053 | 69 | 209 | 0.9 | 3.5 | 0.00 | 0.07 | 0.00 | 1 | 1009.7 |
| 20260507065534 | 69 | 192 | 0.9 | 2.6 | 0.00 | 0.07 | 0.00 | 1 | 1009.3 |
| 20260507065033 | 69 | 192 | 0.0 | 2.6 | 0.00 | 0.07 | 0.00 | 1 | 1009.4 |
| 20260507064531 | 69 | 192 | 0.9 | 2.6 | 0.00 | 0.07 | 0.00 | 1 | 1009.5 |
| 20260507064030 | 69 | 192 | 0.0 | 2.6 | 0.00 | 0.07 | 0.00 | 1 | 1009.4 |
| 20260507063529 | 69 | 190 | 0.0 | 1.7 | 0.00 | 0.07 | 0.00 | 1 | 1009.3 |
| 20260507063027 | 69 | 193 | 0.0 | 2.6 | 0.00 | 0.07 | 0.00 | 1 | 1009.1 |
| 20260507062524 | 69 | 193 | 0.0 | 2.6 | 0.00 | 0.07 | 0.00 | 1 | 1009.1 |
| 20260507062024 | 69 | 153 | 0.0 | 0.0 | 0.00 | 0.07 | 0.00 | 1 | 1009.1 |
| 20260507061522 | 69 | 153 | 0.0 | 3.5 | 0.00 | 0.07 | 0.00 | 1 | 1008.9 |
| 20260507061020 | 69 | 153 | 0.0 | 3.5 | 0.00 | 0.07 | 0.00 | 1 | 1008.9 |
| 20260507060518 | 69 | 193 | 0.0 | 0.0 | 0.00 | 0.07 | 0.00 | 1 | 1008.9 |
| 20260507060021 | 69 | 197 | 0.0 | 0.0 | 0.00 | 0.07 | 0.00 | 1 | 1009.0 |
| 20260507055516 | 69 | 196 | 0.0 | 0.0 | 0.00 | 0.07 | 0.00 | 1 | 1008.9 |
| 20260507055014 | 69 | 196 | 0.0 | 1.7 | 0.00 | 0.07 | 0.00 | 1 | 1009.1 |
| 20260507054512 | 69 | 196 | 0.0 | 1.7 | 0.00 | 0.07 | 0.00 | 1 | 1009.4 |
| 20260507054015 | 69 | 196 | 0.0 | 0.0 | 0.00 | 0.07 | 0.00 | 1 | 1009.3 |
| 20260507053510 | 69 | 196 | 0.0 | 0.0 | 0.00 | 0.07 | 0.00 | 1 | 1009.1 |
| 20260507053009 | 69 | 199 | 0.0 | 0.9 | 0.00 | 0.07 | 0.00 | 1 | 1009.1 |